{"data":{"norad_id":54209,"epoch":"2026-09-20T05:54:10.314144Z","epoch_age_seconds":111788,"freshness":"FRESH","line1":"1 54209U 22141BE  26263.24595271  .00001581  00000+0  56221-4 0  9998","line2":"2 54209  53.1611 181.3381 0001260  73.0133 287.1008 15.35395512215632","mean_motion":15.35395512,"eccentricity":0.000126,"inclination_deg":53.1611,"raan_deg":181.3381,"arg_perigee_deg":73.0133,"mean_anomaly_deg":287.1008,"bstar":5.6221e-5,"rev_number":21563,"period_min":93.786909545167,"perigee_km":458.88439432488,"apogee_km":460.60754083271,"semimajor_km":6837.8829675788,"source":"CELESTRAK","updated_at":"2026-09-21T09:00:33.118982Z"}}